START_TIME,STEP,MOV.,M34,t_acc.,L5,t_acc.,L18,t_acc.,L14,t_acc.
1979-07-27 09:00:23.970 ,0,0,0.,12.0,0.,12.0,0.,12.0,0.,12.0
1979-07-27 09:00:35.970 ,0,0,0.,12.0,0.,12.0,0.,12.0,0.,12.0
1979-07-27 09:00:47.970 ,0,1,0.,12.0,0.,12.0,0.,12.0,0.,12.0
1979-07-27 09:00:59.970 ,0,1,0.,12.0,0.,12.0,0.,12.0,0.,12.0
1979-07-27 09:01:11.970 ,0,0,0.,12.0,0.,12.0,0.,12.0,0.,12.0
1979-07-27 09:01:23.970 ,0,0,0.,12.0,0.,12.0,0.,12.0,0.,12.0
1979-07-27 09:01:35.970 ,1,1,0.,12.0,0.,12.0,0.,12.0,0.,12.0
1979-07-27 09:01:47.970 ,1,1,0.,12.0,0.,12.0,0.,12.0,0.,12.0
1979-07-27 09:01:59.970 ,1,0,0.,12.0,0.,12.0,0.,12.0,0.,12.0
1979-07-27 09:02:11.970 ,1,0,0.,12.0,0.,12.0,0.,12.0,0.,12.0
1979-07-27 09:02:23.970 ,2,1,0.,12.0,0.,12.0,0.,12.0,0.,12.0
1979-07-27 09:02:35.970 ,2,1,0.,12.0,0.,12.0,0.,12.0,0.,12.0
1979-07-27 09:02:47.970 ,2,0,0.,12.0,0.,12.0,0.,12.0,0.,12.0
1979-07-27 09:02:59.970 ,2,0,0.,12.0,0.,12.0,0.,12.0,0.,12.0
1979-07-27 09:03:11.970 ,3,1,0.,12.0,0.,12.0,0.,12.0,0.,12.0
1979-07-27 09:03:23.970 ,3,1,0.,12.0,0.,12.0,0.,12.0,0.,12.0
1979-07-27 09:03:35.970 ,3,0,0.,12.0,0.,12.0,0.,12.0,0.,12.0
1979-07-27 09:03:47.970 ,3,0,0.,12.0,0.,12.0,0.,12.0,0.,12.0
1979-07-27 09:03:59.970 ,4,1,0.,12.0,0.,12.0,0.,12.0,0.,12.0
1979-07-27 09:04:11.970 ,4,1,0.,12.0,0.,12.0,0.,12.0,0.,12.0
1979-07-27 09:04:23.970 ,4,0,0.,12.0,0.,12.0,0.,12.0,0.,12.0
1979-07-27 09:04:35.970 ,4,0,0.,12.0,0.,12.0,0.,12.0,0.,12.0
1979-07-27 09:04:47.970 ,5,1,0.,12.0,0.,12.0,0.,12.0,0.,12.0
1979-07-27 09:04:59.970 ,5,1,0.,12.0,0.,12.0,0.,12.0,0.,12.0
1979-07-27 09:05:11.970 ,5,0,0.,12.0,0.,12.0,0.,12.0,0.,12.0
1979-07-27 09:05:23.970 ,5,0,0.,12.0,0.,12.0,0.,12.0,0.,12.0
1979-07-27 09:05:35.970 ,6,1,0.,12.0,0.,12.0,0.,12.0,0.,12.0
1979-07-27 09:05:47.970 ,6,1,0.,12.0,0.,12.0,0.,12.0,0.,12.0
1979-07-27 09:05:59.970 ,6,0,0.,12.0,0.,12.0,0.,12.0,0.,12.0
1979-07-27 09:06:11.970 ,6,0,0.,12.0,0.,12.0,0.,12.0,0.,12.0
1979-07-27 09:06:23.970 ,7,0,0.,12.0,0.,12.0,0.,12.0,0.,12.0
1979-07-27 09:06:35.970 ,7,0,0.,12.0,0.,12.0,0.,12.0,0.,12.0
1979-07-27 09:06:47.970 ,7,0,0.,12.0,0.,12.0,0.,12.0,0.,12.0
1979-07-27 09:06:59.970 ,7,0,0.,12.0,0.,12.0,0.,12.0,0.,12.0
1979-07-27 09:07:11.970 ,4,1,0.,12.0,0.,12.0,0.,12.0,0.,12.0
1979-07-27 09:07:23.970 ,4,1,0.,12.0,0.,12.0,0.,12.0,0.,12.0
1979-07-27 09:07:35.970 ,0,1,0.,12.0,0.,12.0,0.,12.0,0.,12.0
1979-07-27 09:07:47.970 ,0,1,0.,12.0,0.,12.0,0.,12.0,0.,12.0
1979-07-27 09:07:59.970 ,3,1,0.,12.0,0.,12.0,0.,12.0,0.,12.0
1979-07-27 09:08:11.970 ,3,1,0.,12.0,0.,12.0,0.,12.0,0.,12.0
1979-07-27 09:08:23.970 ,7,1,0.,12.0,0.,12.0,0.,12.0,0.,12.0
1979-07-27 09:08:35.970 ,7,1,0.,12.0,0.,12.0,0.,12.0,0.,12.0
1979-07-27 09:08:47.970 ,4,1,0.,12.0,0.,12.0,0.,12.0,0.,12.0
1979-07-27 09:08:59.970 ,4,1,0.,12.0,0.,12.0,0.,12.0,0.,12.0
1979-07-27 09:09:11.970 ,0,1,0.,12.0,0.,12.0,0.,12.0,0.,12.0
1979-07-27 09:09:23.970 ,0,1,0.,12.0,0.,12.0,0.,12.0,0.,12.0
1979-07-27 09:09:35.970 ,3,1,0.,12.0,0.,12.0,0.,12.0,0.,12.0
1979-07-27 09:09:47.970 ,3,1,0.,12.0,0.,12.0,0.,12.0,0.,12.0
1979-07-27 09:09:59.970 ,7,1,0.,12.0,0.,12.0,0.,12.0,0.,12.0
1979-07-27 09:10:11.970 ,7,1,0.,12.0,0.,12.0,0.,12.0,0.,12.0
1979-07-27 09:10:23.970 ,4,1,0.,12.0,0.,12.0,0.,12.0,0.,12.0
1979-07-27 09:10:35.970 ,4,1,0.,12.0,0.,12.0,0.,12.0,0.,12.0
1979-07-27 09:10:47.970 ,0,1,0.,12.0,0.,12.0,0.,12.0,0.,12.0
1979-07-27 09:10:59.970 ,0,1,0.,12.0,0.,12.0,0.,12.0,0.,12.0
1979-07-27 09:11:11.970 ,3,1,0.,12.0,0.,12.0,0.,12.0,0.,12.0
1979-07-27 09:11:23.970 ,3,1,0.,12.0,0.,12.0,0.,12.0,0.,12.0
1979-07-27 09:11:35.970 ,7,1,0.,12.0,0.,12.0,0.,12.0,0.,12.0
1979-07-27 09:11:47.970 ,7,1,0.,12.0,0.,12.0,0.,12.0,0.,12.0
1979-07-27 09:11:59.970 ,4,1,0.,12.0,0.,12.0,0.,12.0,0.,12.0
1979-07-27 09:12:11.970 ,4,1,0.,12.0,0.,12.0,0.,12.0,0.,12.0
1979-07-27 09:12:23.970 ,0,1,0.,12.0,0.,12.0,0.,12.0,0.,12.0
1979-07-27 09:12:35.970 ,0,1,0.,12.0,0.,12.0,0.,12.0,0.,12.0
1979-07-27 09:12:47.970 ,3,1,1.,12.0,0.,12.0,0.,12.0,0.,12.0
1979-07-27 09:12:59.970 ,3,1,0.,12.0,0.,12.0,0.,12.0,0.,12.0
1979-07-27 09:13:11.970 ,7,1,0.,12.0,0.,12.0,0.,12.0,0.,12.0
1979-07-27 09:13:23.970 ,7,1,0.,12.0,0.,12.0,0.,12.0,0.,12.0
1979-07-27 09:13:35.970 ,4,1,0.,12.0,0.,12.0,0.,12.0,0.,12.0
1979-07-27 09:13:47.970 ,4,1,0.,12.0,0.,12.0,0.,12.0,0.,12.0
1979-07-27 09:13:59.970 ,0,1,0.,12.0,0.,12.0,0.,12.0,0.,12.0
1979-07-27 09:14:11.970 ,0,1,0.,12.0,0.,12.0,0.,12.0,0.,12.0
1979-07-27 09:14:23.970 ,3,1,0.,12.0,0.,12.0,0.,12.0,0.,12.0
1979-07-27 09:14:35.970 ,3,1,0.,12.0,0.,12.0,0.,12.0,0.,12.0
1979-07-27 09:14:47.970 ,7,1,0.,12.0,0.,12.0,0.,12.0,0.,12.0
1979-07-27 09:14:59.970 ,7,1,0.,12.0,0.,12.0,0.,12.0,0.,12.0
1979-07-27 09:15:11.970 ,4,1,0.,12.0,0.,12.0,0.,12.0,0.,12.0
1979-07-27 09:15:23.970 ,4,1,0.,12.0,0.,12.0,0.,12.0,0.,12.0
1979-07-27 09:15:35.970 ,0,1,0.,12.0,0.,12.0,0.,12.0,0.,12.0
1979-07-27 09:15:47.970 ,0,1,0.,12.0,0.,12.0,0.,12.0,0.,12.0
1979-07-27 09:15:59.970 ,3,1,0.,12.0,0.,12.0,0.,12.0,0.,12.0
1979-07-27 09:16:11.970 ,3,1,0.,12.0,0.,12.0,0.,12.0,0.,12.0
1979-07-27 09:16:23.970 ,7,1,0.,12.0,0.,12.0,0.,12.0,0.,12.0
1979-07-27 09:16:35.970 ,7,1,0.,12.0,0.,12.0,0.,12.0,0.,12.0
1979-07-27 09:16:47.970 ,4,1,0.,12.0,0.,12.0,0.,12.0,0.,12.0
1979-07-27 09:16:59.970 ,4,1,0.,12.0,0.,12.0,0.,12.0,0.,12.0
1979-07-27 09:17:11.970 ,0,1,0.,12.0,0.,12.0,0.,12.0,0.,12.0
1979-07-27 09:17:23.970 ,0,1,0.,12.0,0.,12.0,0.,12.0,0.,12.0
1979-07-27 09:17:35.970 ,0,0,0.,12.0,0.,12.0,0.,12.0,0.,12.0
1979-07-27 09:17:47.970 ,0,0,0.,12.0,0.,12.0,0.,12.0,0.,12.0
1979-07-27 09:17:59.970 ,0,0,0.,12.0,0.,12.0,0.,12.0,0.,12.0
1979-07-27 09:18:11.970 ,0,0,0.,12.0,0.,12.0,0.,12.0,0.,12.0
1979-07-27 09:18:23.970 ,5,1,0.,12.0,0.,12.0,0.,12.0,0.,12.0
1979-07-27 09:18:35.970 ,5,1,0.,12.0,0.,12.0,0.,12.0,0.,12.0
1979-07-27 09:18:47.970 ,5,0,0.,12.0,0.,12.0,0.,12.0,0.,12.0
1979-07-27 09:18:59.970 ,5,0,0.,12.0,0.,12.0,0.,12.0,0.,12.0
1979-07-27 09:19:11.970 ,4,1,0.,12.0,0.,12.0,0.,12.0,0.,12.0
1979-07-27 09:19:23.970 ,4,1,0.,12.0,0.,12.0,0.,12.0,0.,12.0
1979-07-27 09:19:35.970 ,4,0,0.,12.0,0.,12.0,0.,12.0,1.,12.0
1979-07-27 09:19:47.970 ,4,0,0.,12.0,0.,12.0,0.,12.0,0.,12.0
1979-07-27 09:19:59.970 ,3,1,0.,12.0,0.,12.0,0.,12.0,0.,12.0
1979-07-27 09:20:11.970 ,3,1,0.,12.0,0.,12.0,0.,12.0,0.,12.0
1979-07-27 09:20:23.970 ,3,0,0.,12.0,0.,12.0,0.,12.0,0.,12.0
1979-07-27 09:20:35.970 ,3,0,0.,12.0,0.,12.0,0.,12.0,0.,12.0
1979-07-27 09:20:47.970 ,2,1,0.,12.0,0.,12.0,0.,12.0,0.,12.0
1979-07-27 09:20:59.970 ,2,1,0.,12.0,0.,12.0,0.,12.0,0.,12.0
1979-07-27 09:21:11.970 ,2,0,0.,12.0,0.,12.0,0.,12.0,0.,12.0
1979-07-27 09:21:23.970 ,2,0,0.,12.0,0.,12.0,0.,12.0,0.,12.0
1979-07-27 09:21:35.970 ,1,1,0.,12.0,0.,12.0,0.,12.0,0.,12.0
1979-07-27 09:21:47.970 ,1,1,0.,12.0,0.,12.0,0.,12.0,0.,12.0
1979-07-27 09:21:59.970 ,1,0,0.,12.0,0.,12.0,0.,12.0,0.,12.0
1979-07-27 09:22:11.970 ,1,0,0.,12.0,0.,12.0,0.,12.0,0.,12.0
1979-07-27 09:22:23.970 ,0,1,1.,12.0,0.,12.0,0.,12.0,0.,12.0
1979-07-27 09:22:35.970 ,0,1,0.,12.0,0.,12.0,0.,12.0,0.,12.0
1979-07-27 09:22:47.970 ,0,0,0.,12.0,0.,12.0,0.,12.0,0.,12.0
1979-07-27 09:22:59.970 ,0,0,0.,12.0,0.,12.0,0.,12.0,0.,12.0
1979-07-27 09:23:11.970 ,0,1,0.,12.0,0.,12.0,0.,12.0,0.,12.0
1979-07-27 09:23:23.970 ,0,1,0.,12.0,0.,12.0,0.,12.0,0.,12.0
1979-07-27 09:23:35.970 ,0,0,0.,12.0,0.,12.0,0.,12.0,0.,12.0
1979-07-27 09:23:47.970 ,0,0,0.,12.0,0.,12.0,0.,12.0,0.,12.0
1979-07-27 09:23:59.970 ,1,1,0.,12.0,0.,12.0,0.,12.0,0.,12.0
1979-07-27 09:24:11.970 ,1,1,0.,12.0,0.,12.0,0.,12.0,0.,12.0
1979-07-27 09:24:23.970 ,1,0,0.,12.0,0.,12.0,0.,12.0,0.,12.0
1979-07-27 09:24:35.970 ,1,0,0.,12.0,0.,12.0,0.,12.0,0.,12.0
1979-07-27 09:24:47.970 ,2,1,0.,12.0,0.,12.0,0.,12.0,0.,12.0
1979-07-27 09:24:59.970 ,2,1,0.,12.0,0.,12.0,0.,12.0,0.,12.0
1979-07-27 09:25:11.970 ,2,0,0.,12.0,0.,12.0,0.,12.0,0.,12.0
1979-07-27 09:25:23.970 ,2,0,0.,12.0,0.,12.0,0.,12.0,0.,12.0
1979-07-27 09:25:35.970 ,3,1,0.,12.0,0.,12.0,0.,12.0,0.,12.0
1979-07-27 09:25:47.970 ,3,1,0.,12.0,0.,12.0,0.,12.0,0.,12.0
1979-07-27 09:25:59.970 ,3,0,0.,12.0,0.,12.0,0.,12.0,0.,12.0
1979-07-27 09:26:11.970 ,3,0,0.,12.0,0.,12.0,0.,12.0,0.,12.0
1979-07-27 09:26:23.970 ,4,1,0.,12.0,0.,12.0,0.,12.0,0.,12.0
1979-07-27 09:26:35.970 ,4,1,0.,12.0,0.,12.0,0.,12.0,0.,12.0
1979-07-27 09:26:47.970 ,4,0,0.,12.0,0.,12.0,0.,12.0,0.,12.0
1979-07-27 09:26:59.970 ,4,0,0.,12.0,0.,12.0,0.,12.0,0.,12.0
1979-07-27 09:27:11.970 ,5,1,0.,12.0,0.,12.0,0.,12.0,0.,12.0
1979-07-27 09:27:23.970 ,5,1,0.,12.0,0.,12.0,0.,12.0,0.,12.0
1979-07-27 09:27:35.970 ,5,0,0.,12.0,0.,12.0,0.,12.0,0.,12.0
1979-07-27 09:27:47.970 ,5,0,0.,12.0,0.,12.0,0.,12.0,0.,12.0
1979-07-27 09:27:59.970 ,6,1,0.,12.0,0.,12.0,0.,12.0,0.,12.0
1979-07-27 09:28:11.970 ,6,1,0.,12.0,0.,12.0,0.,12.0,0.,12.0
1979-07-27 09:28:23.970 ,6,0,0.,12.0,0.,12.0,0.,12.0,0.,12.0
1979-07-27 09:28:35.970 ,6,0,0.,12.0,0.,12.0,0.,12.0,0.,12.0
1979-07-27 09:28:47.970 ,7,1,0.,12.0,0.,12.0,0.,12.0,0.,12.0
1979-07-27 09:28:59.970 ,7,1,0.,12.0,0.,12.0,0.,12.0,0.,12.0
1979-07-27 09:29:11.970 ,7,0,0.,12.0,0.,12.0,0.,12.0,0.,12.0
1979-07-27 09:29:23.970 ,7,0,0.,12.0,0.,12.0,0.,12.0,0.,12.0
1979-07-27 09:29:35.970 ,7,1,0.,12.0,0.,12.0,0.,12.0,0.,12.0
1979-07-27 09:29:47.970 ,7,1,0.,12.0,0.,12.0,0.,12.0,0.,12.0
1979-07-27 09:29:59.970 ,7,0,0.,12.0,0.,12.0,0.,12.0,0.,12.0
1979-07-27 09:30:11.970 ,7,0,0.,12.0,0.,12.0,0.,12.0,0.,12.0
1979-07-27 09:30:23.970 ,6,1,0.,12.0,0.,12.0,0.,12.0,0.,12.0
1979-07-27 09:30:35.970 ,6,1,0.,12.0,0.,12.0,0.,12.0,0.,12.0
1979-07-27 09:30:47.970 ,6,0,0.,12.0,0.,12.0,0.,12.0,0.,12.0
1979-07-27 09:30:59.970 ,6,0,0.,12.0,0.,12.0,0.,12.0,0.,12.0
1979-07-27 09:31:11.970 ,5,1,0.,12.0,0.,12.0,0.,12.0,0.,12.0
1979-07-27 09:31:23.970 ,5,1,0.,12.0,0.,12.0,0.,12.0,0.,12.0
1979-07-27 09:31:35.970 ,5,0,0.,12.0,0.,12.0,0.,12.0,0.,12.0
1979-07-27 09:31:47.970 ,5,0,0.,12.0,0.,12.0,0.,12.0,0.,12.0
1979-07-27 09:31:59.970 ,4,1,0.,12.0,0.,12.0,0.,12.0,0.,12.0
1979-07-27 09:32:11.970 ,4,1,0.,12.0,0.,12.0,0.,12.0,0.,12.0
1979-07-27 09:32:23.970 ,4,0,0.,12.0,0.,12.0,0.,12.0,0.,12.0
1979-07-27 09:32:35.970 ,4,0,0.,12.0,0.,12.0,0.,12.0,0.,12.0
1979-07-27 09:32:47.970 ,3,1,0.,12.0,0.,12.0,0.,12.0,0.,12.0
1979-07-27 09:32:59.970 ,3,1,0.,12.0,0.,12.0,0.,12.0,0.,12.0
1979-07-27 09:33:11.970 ,3,0,0.,12.0,0.,12.0,0.,12.0,0.,12.0
1979-07-27 09:33:23.970 ,3,0,0.,12.0,0.,12.0,0.,12.0,0.,12.0
1979-07-27 09:33:35.970 ,2,1,0.,12.0,0.,12.0,0.,12.0,0.,12.0
1979-07-27 09:33:47.970 ,2,1,0.,12.0,0.,12.0,0.,12.0,0.,12.0
1979-07-27 09:33:59.970 ,2,0,0.,12.0,0.,12.0,0.,12.0,0.,12.0
1979-07-27 09:34:11.970 ,2,0,0.,12.0,0.,12.0,0.,12.0,0.,12.0
1979-07-27 09:34:23.970 ,1,1,0.,12.0,0.,12.0,0.,12.0,0.,12.0
1979-07-27 09:34:35.970 ,1,1,0.,12.0,0.,12.0,0.,12.0,0.,12.0
1979-07-27 09:34:47.970 ,1,0,0.,12.0,0.,12.0,0.,12.0,0.,12.0
1979-07-27 09:34:59.970 ,1,0,0.,12.0,0.,12.0,0.,12.0,0.,12.0
1979-07-27 09:35:11.970 ,0,1,0.,12.0,0.,12.0,0.,12.0,0.,12.0
1979-07-27 09:35:23.970 ,0,1,0.,12.0,0.,12.0,0.,12.0,0.,12.0
1979-07-27 09:35:35.970 ,0,0,0.,12.0,0.,12.0,0.,12.0,0.,12.0
1979-07-27 09:35:47.970 ,0,0,0.,12.0,0.,12.0,0.,12.0,0.,12.0
1979-07-27 09:35:59.970 ,0,1,0.,12.0,0.,12.0,0.,12.0,0.,12.0
1979-07-27 09:36:11.970 ,0,1,0.,12.0,0.,12.0,0.,12.0,0.,12.0
1979-07-27 09:36:23.970 ,0,0,1.,12.0,0.,12.0,0.,12.0,0.,12.0
1979-07-27 09:36:35.970 ,0,0,0.,12.0,0.,12.0,0.,12.0,0.,12.0
1979-07-27 09:36:47.970 ,1,1,0.,12.0,0.,12.0,0.,12.0,0.,12.0
1979-07-27 09:36:59.970 ,1,1,0.,12.0,0.,12.0,0.,12.0,0.,12.0
1979-07-27 09:37:11.970 ,1,0,0.,12.0,0.,12.0,0.,12.0,0.,12.0
1979-07-27 09:37:23.970 ,1,0,0.,12.0,0.,12.0,0.,12.0,0.,12.0
1979-07-27 09:37:35.970 ,2,1,0.,12.0,0.,12.0,0.,12.0,0.,12.0
1979-07-27 09:37:47.970 ,2,1,1.,12.0,0.,12.0,0.,12.0,0.,12.0
1979-07-27 09:37:59.970 ,2,0,0.,12.0,0.,12.0,0.,12.0,0.,12.0
1979-07-27 09:38:11.970 ,2,0,0.,12.0,0.,12.0,0.,12.0,0.,12.0
1979-07-27 09:38:23.970 ,3,1,0.,12.0,0.,12.0,0.,12.0,0.,12.0
1979-07-27 09:38:35.970 ,3,1,0.,12.0,0.,12.0,0.,12.0,0.,12.0
1979-07-27 09:38:47.970 ,3,0,0.,12.0,0.,12.0,0.,12.0,0.,12.0
1979-07-27 09:38:59.970 ,3,0,0.,12.0,0.,12.0,0.,12.0,0.,12.0
1979-07-27 09:39:11.970 ,4,1,0.,12.0,0.,12.0,0.,12.0,0.,12.0
1979-07-27 09:39:23.970 ,4,1,0.,12.0,0.,12.0,0.,12.0,0.,12.0
1979-07-27 09:39:35.970 ,4,0,0.,12.0,0.,12.0,0.,12.0,0.,12.0
1979-07-27 09:39:47.970 ,4,0,0.,12.0,0.,12.0,0.,12.0,0.,12.0
1979-07-27 09:39:59.970 ,5,1,0.,12.0,0.,12.0,0.,12.0,0.,12.0
1979-07-27 09:40:11.970 ,5,1,0.,12.0,0.,12.0,0.,12.0,0.,12.0
1979-07-27 09:40:23.970 ,5,0,0.,12.0,0.,12.0,0.,12.0,0.,12.0
1979-07-27 09:40:35.970 ,5,0,0.,12.0,0.,12.0,0.,12.0,0.,12.0
1979-07-27 09:40:47.970 ,6,1,0.,12.0,0.,12.0,0.,12.0,0.,12.0
1979-07-27 09:40:59.970 ,6,1,0.,12.0,0.,12.0,0.,12.0,0.,12.0
1979-07-27 09:41:11.970 ,6,0,0.,12.0,0.,12.0,0.,12.0,0.,12.0
1979-07-27 09:41:23.970 ,6,0,0.,12.0,0.,12.0,0.,12.0,0.,12.0
1979-07-27 09:41:35.970 ,7,1,0.,12.0,0.,12.0,0.,12.0,0.,12.0
1979-07-27 09:41:47.970 ,7,1,0.,12.0,0.,12.0,0.,12.0,0.,12.0
1979-07-27 09:41:59.970 ,7,0,0.,12.0,0.,12.0,0.,12.0,0.,12.0
1979-07-27 09:42:11.970 ,7,0,0.,12.0,0.,12.0,0.,12.0,0.,12.0
1979-07-27 09:42:23.970 ,7,1,0.,12.0,0.,12.0,0.,12.0,0.,12.0
1979-07-27 09:42:35.970 ,7,1,0.,12.0,0.,12.0,0.,12.0,0.,12.0
1979-07-27 09:42:47.970 ,7,0,0.,12.0,0.,12.0,0.,12.0,0.,12.0
1979-07-27 09:42:59.970 ,7,0,0.,12.0,0.,12.0,0.,12.0,0.,12.0
1979-07-27 09:43:11.970 ,6,1,0.,12.0,0.,12.0,0.,12.0,0.,12.0
1979-07-27 09:43:23.970 ,6,1,0.,12.0,0.,12.0,0.,12.0,0.,12.0
1979-07-27 09:43:35.970 ,6,0,0.,12.0,0.,12.0,0.,12.0,0.,12.0
1979-07-27 09:43:47.970 ,6,0,0.,12.0,0.,12.0,0.,12.0,0.,12.0
1979-07-27 09:43:59.970 ,5,1,0.,12.0,0.,12.0,0.,12.0,0.,12.0
1979-07-27 09:44:11.970 ,5,1,0.,12.0,0.,12.0,0.,12.0,0.,12.0
1979-07-27 09:44:23.970 ,5,0,0.,12.0,0.,12.0,0.,12.0,0.,12.0
1979-07-27 09:44:35.970 ,5,0,0.,12.0,0.,12.0,0.,12.0,0.,12.0
1979-07-27 09:44:47.970 ,4,1,0.,12.0,0.,12.0,0.,12.0,0.,12.0
1979-07-27 09:44:59.970 ,4,1,0.,12.0,0.,12.0,0.,12.0,0.,12.0
1979-07-27 09:45:11.970 ,4,0,0.,12.0,0.,12.0,0.,12.0,0.,12.0
1979-07-27 09:45:23.970 ,4,0,0.,12.0,0.,12.0,0.,12.0,0.,12.0
1979-07-27 09:45:35.970 ,3,1,0.,12.0,0.,12.0,0.,12.0,0.,12.0
1979-07-27 09:45:47.970 ,3,1,0.,12.0,0.,12.0,0.,12.0,0.,12.0
1979-07-27 09:45:59.970 ,3,0,0.,12.0,0.,12.0,0.,12.0,0.,12.0
1979-07-27 09:46:11.970 ,3,0,0.,12.0,0.,12.0,0.,12.0,0.,12.0
1979-07-27 09:46:23.970 ,2,1,0.,12.0,0.,12.0,0.,12.0,0.,12.0
1979-07-27 09:46:35.970 ,2,1,0.,12.0,0.,12.0,0.,12.0,0.,12.0
1979-07-27 09:46:47.970 ,2,0,0.,12.0,0.,12.0,0.,12.0,0.,12.0
1979-07-27 09:46:59.970 ,2,0,0.,12.0,0.,12.0,0.,12.0,0.,12.0
1979-07-27 09:47:11.970 ,1,1,0.,12.0,0.,12.0,0.,12.0,0.,12.0
1979-07-27 09:47:23.970 ,1,1,0.,12.0,0.,12.0,0.,12.0,0.,12.0
1979-07-27 09:47:35.970 ,1,0,0.,12.0,0.,12.0,0.,12.0,0.,12.0
1979-07-27 09:47:47.970 ,1,0,0.,12.0,0.,12.0,0.,12.0,0.,12.0
1979-07-27 09:47:59.970 ,0,1,0.,12.0,0.,12.0,0.,12.0,0.,12.0
1979-07-27 09:48:11.970 ,0,1,0.,12.0,0.,12.0,0.,12.0,0.,12.0
1979-07-27 09:48:23.970 ,0,0,0.,12.0,0.,12.0,0.,12.0,0.,12.0
1979-07-27 09:48:35.970 ,0,0,0.,12.0,0.,12.0,0.,12.0,0.,12.0
1979-07-27 09:48:47.970 ,0,1,0.,12.0,0.,12.0,0.,12.0,0.,12.0
1979-07-27 09:48:59.970 ,0,1,0.,12.0,0.,12.0,0.,12.0,0.,12.0
1979-07-27 09:49:11.970 ,0,0,0.,12.0,0.,12.0,0.,12.0,0.,12.0
1979-07-27 09:49:23.970 ,0,0,1.,12.0,0.,12.0,0.,12.0,0.,12.0
1979-07-27 09:49:35.970 ,1,1,0.,12.0,0.,12.0,0.,12.0,0.,12.0
1979-07-27 09:49:47.970 ,1,1,0.,12.0,0.,12.0,0.,12.0,0.,12.0
1979-07-27 09:49:59.970 ,1,0,0.,12.0,0.,12.0,0.,12.0,0.,12.0
1979-07-27 09:50:11.970 ,1,0,0.,12.0,0.,12.0,0.,12.0,0.,12.0
1979-07-27 09:50:23.970 ,2,1,0.,12.0,0.,12.0,0.,12.0,0.,12.0
1979-07-27 09:50:35.970 ,2,1,0.,12.0,0.,12.0,0.,12.0,0.,12.0
1979-07-27 09:50:47.970 ,2,0,0.,12.0,0.,12.0,0.,12.0,0.,12.0
1979-07-27 09:50:59.970 ,2,0,0.,12.0,0.,12.0,0.,12.0,0.,12.0
1979-07-27 09:51:11.970 ,3,1,0.,12.0,0.,12.0,0.,12.0,0.,12.0
1979-07-27 09:51:23.970 ,3,1,0.,12.0,0.,12.0,0.,12.0,0.,12.0
1979-07-27 09:51:35.970 ,3,0,0.,12.0,0.,12.0,0.,12.0,0.,12.0
1979-07-27 09:51:47.970 ,3,0,0.,12.0,0.,12.0,0.,12.0,0.,12.0
1979-07-27 09:51:59.970 ,4,1,0.,12.0,0.,12.0,0.,12.0,0.,12.0
1979-07-27 09:52:11.970 ,4,1,0.,12.0,0.,12.0,0.,12.0,0.,12.0
1979-07-27 09:52:23.970 ,4,0,0.,12.0,0.,12.0,0.,12.0,0.,12.0
1979-07-27 09:52:35.970 ,4,0,0.,12.0,0.,12.0,0.,12.0,0.,12.0
1979-07-27 09:52:47.960 ,5,1,0.,12.0,0.,12.0,0.,12.0,0.,12.0
1979-07-27 09:52:59.960 ,5,1,0.,12.0,0.,12.0,0.,12.0,0.,12.0
1979-07-27 09:53:11.960 ,5,0,0.,12.0,0.,12.0,0.,12.0,0.,12.0
1979-07-27 09:53:23.960 ,5,0,0.,12.0,0.,12.0,0.,12.0,0.,12.0
1979-07-27 09:53:35.960 ,6,1,0.,12.0,0.,12.0,0.,12.0,0.,12.0
1979-07-27 09:53:47.960 ,6,1,0.,12.0,0.,12.0,0.,12.0,0.,12.0
1979-07-27 09:53:59.960 ,6,0,0.,12.0,0.,12.0,0.,12.0,0.,12.0
1979-07-27 09:54:11.960 ,6,0,0.,12.0,0.,12.0,0.,12.0,0.,12.0
1979-07-27 09:54:23.960 ,7,0,0.,12.0,0.,12.0,0.,12.0,0.,12.0
1979-07-27 09:54:35.960 ,7,0,0.,12.0,0.,12.0,0.,12.0,0.,12.0
1979-07-27 09:54:47.960 ,7,0,0.,12.0,0.,12.0,0.,12.0,0.,12.0
1979-07-27 09:54:59.960 ,7,0,0.,12.0,0.,12.0,0.,12.0,0.,12.0
1979-07-27 09:55:11.960 ,4,1,0.,12.0,0.,12.0,0.,12.0,0.,12.0
1979-07-27 09:55:23.960 ,4,1,0.,12.0,0.,12.0,0.,12.0,0.,12.0
1979-07-27 09:55:35.960 ,0,1,0.,12.0,0.,12.0,0.,12.0,0.,12.0
1979-07-27 09:55:47.960 ,0,1,0.,12.0,0.,12.0,0.,12.0,0.,12.0
1979-07-27 09:55:59.960 ,3,1,0.,12.0,0.,12.0,0.,12.0,0.,12.0
1979-07-27 09:56:11.960 ,3,1,0.,12.0,0.,12.0,0.,12.0,0.,12.0
1979-07-27 09:56:23.960 ,7,1,0.,12.0,0.,12.0,0.,12.0,0.,12.0
1979-07-27 09:56:35.960 ,7,1,0.,12.0,0.,12.0,0.,12.0,0.,12.0
1979-07-27 09:56:47.960 ,4,1,0.,12.0,0.,12.0,0.,12.0,0.,12.0
1979-07-27 09:56:59.960 ,4,1,0.,12.0,0.,12.0,0.,12.0,0.,12.0
1979-07-27 09:57:11.960 ,0,1,0.,12.0,0.,12.0,0.,12.0,0.,12.0
1979-07-27 09:57:23.960 ,0,1,0.,12.0,0.,12.0,0.,12.0,0.,12.0
1979-07-27 09:57:35.960 ,3,1,0.,12.0,0.,12.0,0.,12.0,0.,12.0
1979-07-27 09:57:47.960 ,3,1,0.,12.0,0.,12.0,0.,12.0,0.,12.0
1979-07-27 09:57:59.960 ,7,1,0.,12.0,0.,12.0,0.,12.0,0.,12.0
1979-07-27 09:58:11.960 ,7,1,0.,12.0,0.,12.0,0.,12.0,0.,12.0
1979-07-27 09:58:23.960 ,4,1,0.,12.0,0.,12.0,0.,12.0,0.,12.0
1979-07-27 09:58:35.960 ,4,1,0.,12.0,0.,12.0,0.,12.0,0.,12.0
1979-07-27 09:58:47.960 ,0,1,0.,12.0,0.,12.0,0.,12.0,0.,12.0
1979-07-27 09:58:59.960 ,0,1,0.,12.0,0.,12.0,0.,12.0,0.,12.0
1979-07-27 09:59:11.960 ,3,1,0.,12.0,0.,12.0,0.,12.0,0.,12.0
1979-07-27 09:59:23.960 ,3,1,0.,12.0,0.,12.0,0.,12.0,0.,12.0
1979-07-27 09:59:35.960 ,7,1,0.,12.0,0.,12.0,0.,12.0,0.,12.0
1979-07-27 09:59:47.960 ,7,1,0.,12.0,0.,12.0,0.,12.0,0.,12.0
1979-07-27 09:59:59.960 ,4,1,0.,12.0,0.,12.0,0.,12.0,0.,12.0
1979-07-27 10:00:11.960 ,4,1,0.,12.0,0.,12.0,0.,12.0,0.,12.0
1979-07-27 10:00:23.970 ,0,1,0.,12.0,0.,12.0,0.,12.0,0.,12.0
1979-07-27 10:00:35.970 ,0,1,0.,12.0,0.,12.0,0.,12.0,0.,12.0
1979-07-27 10:00:47.970 ,3,1,0.,12.0,0.,12.0,0.,12.0,0.,12.0
1979-07-27 10:00:59.970 ,3,1,0.,12.0,0.,12.0,0.,12.0,0.,12.0
1979-07-27 10:01:11.960 ,7,1,0.,12.0,0.,12.0,0.,12.0,0.,12.0
1979-07-27 10:01:23.970 ,7,1,0.,12.0,0.,12.0,0.,12.0,0.,12.0
1979-07-27 10:01:35.960 ,4,1,0.,12.0,0.,12.0,0.,12.0,0.,12.0
1979-07-27 10:01:47.970 ,4,1,0.,12.0,0.,12.0,0.,12.0,0.,12.0
1979-07-27 10:01:59.970 ,0,1,0.,12.0,0.,12.0,0.,12.0,0.,12.0
1979-07-27 10:02:11.970 ,0,1,0.,12.0,0.,12.0,0.,12.0,0.,12.0
1979-07-27 10:02:23.960 ,3,1,0.,12.0,0.,12.0,0.,12.0,0.,12.0
1979-07-27 10:02:35.970 ,3,1,0.,12.0,0.,12.0,0.,12.0,0.,12.0
1979-07-27 10:02:47.960 ,7,1,0.,12.0,0.,12.0,0.,12.0,0.,12.0
1979-07-27 10:02:59.970 ,7,1,0.,12.0,0.,12.0,0.,12.0,0.,12.0
1979-07-27 10:03:11.960 ,4,1,0.,12.0,0.,12.0,0.,12.0,0.,12.0
1979-07-27 10:03:23.970 ,4,1,0.,12.0,0.,12.0,0.,12.0,0.,12.0
1979-07-27 10:03:35.960 ,0,1,0.,12.0,0.,12.0,0.,12.0,0.,12.0
1979-07-27 10:03:47.970 ,0,1,0.,12.0,0.,12.0,0.,12.0,0.,12.0
1979-07-27 10:03:59.960 ,3,1,0.,12.0,0.,12.0,0.,12.0,0.,12.0
1979-07-27 10:04:11.970 ,3,1,0.,12.0,0.,12.0,0.,12.0,0.,12.0
1979-07-27 10:04:23.970 ,7,1,0.,12.0,0.,12.0,0.,12.0,0.,12.0
1979-07-27 10:04:35.970 ,7,1,0.,12.0,0.,12.0,0.,12.0,0.,12.0
1979-07-27 10:04:47.970 ,4,1,0.,12.0,0.,12.0,0.,12.0,0.,12.0
1979-07-27 10:04:59.970 ,4,1,0.,12.0,0.,12.0,0.,12.0,0.,12.0
1979-07-27 10:05:11.970 ,0,1,0.,12.0,0.,12.0,0.,12.0,0.,12.0
1979-07-27 10:05:23.970 ,0,1,0.,12.0,0.,12.0,0.,12.0,0.,12.0
1979-07-27 10:05:35.970 ,0,0,0.,12.0,0.,12.0,0.,12.0,0.,12.0
1979-07-27 10:05:47.970 ,0,0,0.,12.0,0.,12.0,0.,12.0,0.,12.0
1979-07-27 10:05:59.970 ,0,0,0.,12.0,0.,12.0,0.,12.0,0.,12.0
1979-07-27 10:06:11.970 ,0,0,0.,12.0,0.,12.0,0.,12.0,0.,12.0
1979-07-27 10:06:23.970 ,5,1,0.,12.0,0.,12.0,0.,12.0,0.,12.0
1979-07-27 10:06:35.970 ,5,1,0.,12.0,0.,12.0,0.,12.0,0.,12.0
1979-07-27 10:06:47.970 ,5,0,0.,12.0,0.,12.0,0.,12.0,0.,12.0
1979-07-27 10:06:59.970 ,5,0,0.,12.0,0.,12.0,0.,12.0,0.,12.0
1979-07-27 10:07:11.970 ,4,1,0.,12.0,0.,12.0,0.,12.0,0.,12.0
1979-07-27 10:07:23.970 ,4,1,0.,12.0,0.,12.0,0.,12.0,0.,12.0
1979-07-27 10:07:35.970 ,4,0,0.,12.0,0.,12.0,0.,12.0,0.,12.0
1979-07-27 10:07:47.970 ,4,0,0.,12.0,0.,12.0,0.,12.0,0.,12.0
1979-07-27 10:07:59.970 ,3,1,0.,12.0,0.,12.0,0.,12.0,0.,12.0
1979-07-27 10:08:11.970 ,3,1,0.,12.0,0.,12.0,0.,12.0,0.,12.0
1979-07-27 10:08:23.970 ,3,0,0.,12.0,0.,12.0,0.,12.0,0.,12.0
1979-07-27 10:08:35.970 ,3,0,0.,12.0,0.,12.0,0.,12.0,0.,12.0
1979-07-27 10:08:47.970 ,2,1,0.,12.0,0.,12.0,0.,12.0,0.,12.0
1979-07-27 10:08:59.970 ,2,1,0.,12.0,0.,12.0,0.,12.0,0.,12.0
1979-07-27 10:09:11.970 ,2,0,0.,12.0,0.,12.0,0.,12.0,0.,12.0
1979-07-27 10:09:23.970 ,2,0,0.,12.0,0.,12.0,0.,12.0,0.,12.0
1979-07-27 10:09:35.970 ,1,1,0.,12.0,0.,12.0,0.,12.0,0.,12.0
1979-07-27 10:09:47.970 ,1,1,0.,12.0,0.,12.0,0.,12.0,0.,12.0
1979-07-27 10:09:59.970 ,1,0,1.,12.0,0.,12.0,0.,12.0,0.,12.0
1979-07-27 10:10:11.970 ,1,0,0.,12.0,0.,12.0,0.,12.0,0.,12.0
1979-07-27 10:10:23.970 ,0,1,0.,12.0,0.,12.0,0.,12.0,0.,12.0
1979-07-27 10:10:35.970 ,0,1,0.,12.0,0.,12.0,0.,12.0,0.,12.0
1979-07-27 10:10:47.970 ,0,0,0.,12.0,0.,12.0,0.,12.0,0.,12.0
1979-07-27 10:10:59.970 ,0,0,0.,12.0,0.,12.0,0.,12.0,0.,12.0
1979-07-27 10:11:11.970 ,0,1,0.,12.0,0.,12.0,0.,12.0,0.,12.0
1979-07-27 10:11:23.970 ,0,1,0.,12.0,0.,12.0,0.,12.0,0.,12.0
1979-07-27 10:11:35.970 ,0,0,0.,12.0,0.,12.0,0.,12.0,0.,12.0
1979-07-27 10:11:47.970 ,0,0,1.,12.0,0.,12.0,0.,12.0,0.,12.0
1979-07-27 10:11:59.960 ,1,1,0.,12.0,0.,12.0,0.,12.0,0.,12.0
1979-07-27 10:12:11.960 ,1,1,0.,12.0,0.,12.0,0.,12.0,0.,12.0
1979-07-27 10:12:23.960 ,1,0,0.,12.0,0.,12.0,0.,12.0,0.,12.0
1979-07-27 10:12:35.960 ,1,0,0.,12.0,0.,12.0,0.,12.0,0.,12.0
1979-07-27 10:12:47.960 ,2,1,0.,12.0,0.,12.0,0.,12.0,0.,12.0
1979-07-27 10:12:59.960 ,2,1,0.,12.0,0.,12.0,0.,12.0,0.,12.0
1979-07-27 10:13:11.960 ,2,0,0.,12.0,0.,12.0,0.,12.0,0.,12.0
1979-07-27 10:13:23.960 ,2,0,0.,12.0,0.,12.0,0.,12.0,0.,12.0
1979-07-27 10:13:35.960 ,3,1,0.,12.0,0.,12.0,0.,12.0,0.,12.0
1979-07-27 10:13:47.960 ,3,1,0.,12.0,0.,12.0,0.,12.0,0.,12.0
1979-07-27 10:13:59.960 ,3,0,0.,12.0,0.,12.0,0.,12.0,0.,12.0
1979-07-27 10:14:11.960 ,3,0,0.,12.0,0.,12.0,0.,12.0,0.,12.0
1979-07-27 10:14:23.960 ,4,1,0.,12.0,0.,12.0,0.,12.0,0.,12.0
1979-07-27 10:14:35.960 ,4,1,0.,12.0,0.,12.0,0.,12.0,0.,12.0
1979-07-27 10:14:47.960 ,4,0,0.,12.0,0.,12.0,0.,12.0,0.,12.0
1979-07-27 10:14:59.960 ,4,0,0.,12.0,0.,12.0,0.,12.0,0.,12.0
1979-07-27 10:15:11.960 ,5,1,0.,12.0,0.,12.0,0.,12.0,0.,12.0
1979-07-27 10:15:23.960 ,5,1,0.,12.0,0.,12.0,0.,12.0,0.,12.0
1979-07-27 10:15:35.960 ,5,0,0.,12.0,0.,12.0,0.,12.0,0.,12.0
1979-07-27 10:15:47.960 ,5,0,0.,12.0,0.,12.0,0.,12.0,0.,12.0
1979-07-27 10:15:59.960 ,6,1,0.,12.0,0.,12.0,0.,12.0,0.,12.0
1979-07-27 10:16:11.960 ,6,1,0.,12.0,0.,12.0,0.,12.0,0.,12.0
1979-07-27 10:16:23.960 ,6,0,0.,12.0,0.,12.0,0.,12.0,0.,12.0
1979-07-27 10:16:35.960 ,6,0,0.,12.0,0.,12.0,0.,12.0,0.,12.0
1979-07-27 10:16:47.960 ,7,1,0.,12.0,0.,12.0,0.,12.0,0.,12.0
1979-07-27 10:16:59.960 ,7,1,0.,12.0,0.,12.0,0.,12.0,0.,12.0
1979-07-27 10:17:11.960 ,7,0,0.,12.0,0.,12.0,0.,12.0,0.,12.0
1979-07-27 10:17:23.960 ,7,0,0.,12.0,0.,12.0,0.,12.0,0.,12.0